Find Starlink 34405

NORAD ID: 64704 Int'l Des: 2025-142 Owner: SPXS Country: US Constellation: starlink operational
LEOCIRCULAR

リアルタイム位置

3D地球を読み込み中...

Starlink 34405について

説明を読み込み中...

次回通過

Passes for default location (London). Set your location on the main map for personalized predictions.

高度履歴

Loading altitude history...

軌道要素

1 64704U 25142J 26105.00002315 -.00043270 00000-0 -36391-2 0 9992
2 64704 70.0011 222.8366 0003500 270.1033 8.7515 14.98348544 5679
Epoch: Apr 15, 2026 • Age: 10 hours

現在のステータス

高度 580.3 km
速度 7.57 km/s
衛星直下点 -26.40°S, 139.88°W
打ち上げ日 Jun 28, 2025
運用期間 0.7 years
タイプ internet

技術仕様

分類 Payload
質量 575.00 kg
乾燥質量 530.00 kg
総質量 575.00 kg
長さ 0.30 m
直径 4.10 m
スパン 29.00 m
形状 Box + pan
製造者 SPXS
バスタイプ Starlink V2MO
フェーズステータス In Orbit
所有者/国 SPXS/US

Most Searched